Terminal Aerodrome Forecast
Issued by NWS Melbourne, FL

Home | Current Version | Previous Version | Text Only | Print | Product List | Glossary On
Versions: 1 2 3 4 5 6 7 8 9 10 11 12 13 14
214
FTUS42 KMLB 132324
TAFVRB
TAF
KVRB 132324Z 1400/1424 01010KT P6SM SKC
     FM141200 04008KT P6SM SCT035
     FM141700 07013G18KT P6SM BKN035=

USA.gov is the U.S. government's official web portal to all federal, state and local government web resources and services.